Theta_e
340 336 335 337 335 333 331 328 326 322 319 317 316 315 313 312 310 308 307 305 304 302
338 336 335 336 335 333 329 325 321 319 317 317 316 313 311 311 309 308 305 303 302 300
339 338 337 336 332 328 325 321 318 316 316 316 315 313 312 309 307 306 304 303 298 297
339 337 335 330 326 323 319 317 316 316 315 313 311 310 309 308 307 305 302 299 297 296
337 332 326 324 321 319 316 317 316 315 313 312 311 310 309 308 307 303 300 297 296 295
328 324 323 320 318 317 317 315 313 312 311 312 311 309 308 307 304 301 299 297 295 295
324 322 319 318 317 314 313 309 308 307 307 307 308 308 306 305 302 301 299 298 296 296
320 318 315 313 312 310 306 304 304 302 301 302 304 306 302 299 296 294 294 295 295 296
313 312 309 307 304 302 300 299 299 298 299 299 301 304 303 297 293 293 292 291 291 293
310 308 306 303 299 296 295 295 295 296 299 299 301 299 299 298 292 290 289 289 289 292
306 303 300 297 295 294 294 293 293 293 294 296 297 297 296 296 291 290 290 290 289 289
304 299 297 295 294 292 291 291 290 291 291 292 291 296 296 293 290 289 288 290 292 290
301 297 294 293 292 292 291 290 290 289 290 293 290 294 294 291 289 287 288 288 289 294
299 297 296 294 291 290 289 288 288 287 286 288 289 291 293 293 287 287 287 287 286 288
Wind_Speed
17 12 12 12 6 6 6 7 7 9 8 7 10 8 6 5 6 7 7 8 5 3
11 14 13 16 12 8 10 10 10 9 9 8 9 8 6 6 7 8 6 5 6 3
15 14 13 12 10 8 8 14 11 11 10 10 8 7 7 7 6 8 4 4 5 4
14 15 15 14 15 13 13 10 13 11 11 9 8 5 7 7 7 7 6 4 5 6
17 14 14 14 15 15 15 9 11 13 11 9 7 6 6 6 6 7 6 5 6 8
17 17 17 15 16 15 15 10 12 13 10 8 8 7 6 8 7 7 5 6 8 5
17 18 18 17 17 17 13 12 13 10 10 8 7 8 7 7 7 5 6 7 6 6
18 19 19 18 17 17 13 11 11 12 10 7 8 6 7 7 6 7 7 7 5 5
20 19 19 17 17 14 14 10 9 11 9 9 6 12 12 9 7 7 7 5 6 5
21 19 17 19 20 12 12 10 10 9 11 10 8 13 13 14 6 5 6 6 5 5
23 21 15 15 18 13 11 11 10 10 12 11 7 13 12 11 6 6 6 4 5 6
21 24 16 18 15 9 12 13 11 11 10 11 7 9 9 7 6 7 5 5 7 7
23 22 22 15 14 9 13 13 12 12 9 12 8 9 10 7 5 6 4 6 7 15
24 22 19 16 12 14 14 14 12 11 7 9 8 7 12 12 5 4 5 5 5 6
Wind_Direction
142 141 137 131 150 154 154 135 121 99 89 91 86 85 87 89 82 71 68 67 61 58
147 166 168 146 153 154 163 108 106 107 107 96 88 90 86 92 83 78 70 68 59 54
156 152 151 135 134 150 144 115 108 107 103 92 85 85 102 87 80 83 71 63 66 42
156 142 142 133 134 138 106 111 116 108 100 96 91 91 93 88 94 92 76 49 50 44
147 133 129 125 117 112 106 112 116 105 98 99 107 99 88 93 93 86 72 47 46 33
134 124 120 117 111 112 108 112 100 97 108 118 103 96 79 94 96 82 71 52 44 12
122 122 120 118 113 109 109 112 98 104 103 96 97 93 96 100 92 87 64 54 36 14
119 119 116 110 113 102 106 100 111 108 89 90 84 93 99 90 83 73 59 41 13 10
113 113 110 110 94 101 96 100 105 90 99 92 82 99 102 97 80 66 58 35 7 350
113 109 106 109 101 102 97 103 87 90 94 79 94 107 97 86 78 74 55 43 16 15
112 100 100 96 98 105 109 97 94 88 81 89 79 95 90 93 85 69 55 45 27 26
112 115 107 101 105 110 106 93 88 71 76 85 64 72 80 84 76 70 51 31 29 27
120 108 112 111 113 121 99 91 83 78 66 86 76 53 72 83 79 67 43 29 19 23
107 107 105 114 126 101 91 88 81 80 64 65 64 56 74 73 79 77 56 33 14 12